Regional Weather Roundup
Issued by NWS

Home | Current Version | Previous Version | Graphics & Text | Print | Product List | Glossary On
Versions: 1 2 3 4 5 6 7 8 9 10 11 12 13 14 15 16 17 18 19 20 21 22 23 24 25 26
000
ASUS45 KTFX 132010
RWRMT
MONTANA REGIONAL WEATHER ROUNDUP
NATIONAL WEATHER SERVICE GREAT FALLS MT
100 PM MST WED DEC 13 2017

NOTE: "FAIR" INDICATES FEW OR NO CLOUDS BELOW 12000 FEET WITH NO
SIGNIFICANT WEATHER AND/OR OBSTRUCTIONS TO VISIBILITY.

MTZ001>007-043-132100-
WEST OF THE DIVIDE

CITY           SKY/WX    TMP DP  RH WIND       PRES   REMARKS
KALISPELL      FAIR      29  22  75 CALM      30.40F
MISSOULA       CLOUDY    27  24  89 CALM      30.37F
BUTTE          LGT SNOW  29  26  89 NW5       30.24F FOG
MULLAN PASS    CLOUDY    23  32 100 N5        30.27S FOG
ANACONDA         N/A     28  27  93 N8        30.28F WCI  20
DEER LODGE       N/A     28  28 100 CALM      30.32F VSB 3/4
EUREKA           N/A     25  18  74 MISG      30.48R
HAMILTON         N/A     27  25  93 N7        30.35S WCI  19
LIBBY            N/A     30  23  74 CALM      30.42F
PLAINS           N/A     29  22  75 CALM      30.41F
RONAN            N/A     27  24  88 CALM      30.39F
THOMPSON FALLS   N/A     29  25  85 CALM      30.44F
$$

MTZ008-052>055-132100-
SOUTHWEST MONTANA

CITY           SKY/WX    TMP DP  RH WIND       PRES   REMARKS
BOZEMAN        SNOW      29  27  92 SW5       30.26F VSB 1/2
DILLON         LGT SNOW  32  29  88 NE6       30.21F FOG     WCI  26
W YELLOWSTONE  LGT SNOW  21  19  93 CALM      30.22F
ENNIS          LGT SNOW  28  28 100 N5        30.27S VSB 1
THREE FORKS      N/A     27  25  92 CALM      30.23S VSB 0
TWIN BRIDGES     N/A     33  27  79 CALM      30.20S VSB 1
$$

MTZ009-010-012-014-046-048-049-054-132100-
EAST SLOPES AND CENTRAL MONTANA

CITY           SKY/WX    TMP DP  RH WIND       PRES   REMARKS
CUT BANK       FAIR      42  25  50 W10       30.24F
GREAT FALLS    CLOUDY    38  29  70 SW13      30.26S WCI  30
MALMSTROM AFB  FAIR      38  31  75 SW16      30.26F WCI  29
HELENA         LGT SNOW  28  26  92 W3        30.29F VSB 3/4
CHOTEAU          N/A     43  19  39 VRB3      30.26F
$$

MTZ011-013-016-021-045-047-050-051-132100-
NORTH CENTRAL MONTANA

CITY           SKY/WX    TMP DP  RH WIND       PRES   REMARKS
HAVRE          PTSUNNY   37  24  59 SW13      30.21F WCI  29
LEWISTOWN      CLOUDY    36  22  56 MISG      30.21S
N BAR RANCH    FAIR      39  19  45 NW20G25   30.17F WCI  30
CHINOOK          N/A     39  25  56 W13       30.19F WCI  32
DENTON         FAIR      39  22  50 W18       30.18F WCI  29
$$

MTZ017>020-022>027-061-062-132100-
NORTHEAST MONTANA

CITY           SKY/WX    TMP DP  RH WIND       PRES   REMARKS
GLASGOW        FAIR      39  26  59 NW18G26   30.11F WCI  30
GLENDIVE       CLOUDY    40  25  55 NW18      30.08F
JORDAN           N/A     41  24  51 NW18G26   30.13S
SIDNEY         FAIR      40  25  55 NW17      30.05S
WOLF POINT     CLOUDY    40  27  59 W13       30.09F
MALTA          PTSUNNY   39  25  56 NW17G25   30.15F WCI  30
PLENTYWOOD       N/A     37  27  65 W13       30.03R WCI  29
POPLAR           N/A     39  27  60 W14       30.08F WCI  31
SCOBEY           N/A     40  22  49 W18       30.03F
$$

MTZ028>42-056>058-132100-
SOUTHCENTRAL AND SOUTHEAST MONTANA

CITY           SKY/WX    TMP DP  RH WIND       PRES   REMARKS
BAKER          FAIR      40  26  57 NW18G29   30.06F
BILLINGS       CLOUDY    45  24  43 W12       30.17F
LIVINGSTON     SNOW      33  33 100 W9        30.22S VSB 1/2 WCI  25
MILES CITY     FAIR      42  26  53 NW18G24   30.12S
BIG TIMBER     MOSUNNY   37  30  75 W24       30.21F WCI  26
EKALAKA          N/A     38  23  55 NW13      30.02F WCI  30
FORSYTH          N/A     43  21  42 W9        30.14S
LAUREL           N/A     45  25  45 W15       30.18F
$$

REGIONAL REPORTS...DAKOTAS

CITY           SKY/WX    TMP DP  RH WIND       PRES   REMARKS
WILLISTON      FAIR      43  24  47 NW18G29   30.02F
MINOT          CLOUDY    36  27  69 NW18G28   29.92S WCI  26
DICKINSON      FAIR      38  24  57 NW23      29.96F WCI  27
BEACH          FAIR      37  23  56 NW18G26   30.07F WCI  27
CROSBY         PTSUNNY   36  27  69 NW18      30.00S WCI  25
TIOGA          PTSUNNY   36  30  80 NW22G28   29.98F WCI  24
WATFORD CITY   FAIR      39  25  56 NW15G23   30.00F WCI  31
BISMARCK       CLOUDY    36  26  67 NW12G23   29.94F WCI  28
GRAND FORKS    CLOUDY    24  20  84 N21       29.82R WCI   9
FARGO          CLOUDY    27  24  89 N28       29.80R WCI  11
BUFFALO SD       N/A     43  24  47 NW29      29.96F
RAPID CITY     FAIR      47  23  38 NW29G41   30.00F
$$

REGIONAL REPORTS...WYOMING/IDAHO/WASHINGTON

CITY           SKY/WX    TMP DP  RH WIND       PRES   REMARKS
GILLETTE       FAIR      43  17  35 NW15      30.08F
SHERIDAN       FAIR      43  18  36 NW18      30.12S
BUFFALO WY     FAIR      46  12  25 N20       30.10S
CODY           FAIR      41  17  38 CALM      30.17F
YELLOWSTONE LA   N/A     22  20  92 CALM      30.21F
IDAHO FALLS    CLOUDY    25  21  85 NE3       30.26F
SALMON         SNOW      25  19  80 CALM      30.36F VSB 1/2
BOISE          CLOUDY    25  21  85 VRB3      30.41F FOG
SPOKANE        CLOUDY    29  24  82 CALM      30.49R
$$

REGIONAL REPORTS...ALBERTA

CITY           SKY/WX    TMP DP  RH WIND       PRES   REMARKS
EDMONTON       SUNNY     39  27  60 W13G20    30.19S WCI  32
CALGARY        PTSUNNY   45  23  42 N20G26    30.25R
LETHBRIDGE     PTSUNNY   43  21  42 W13       30.24F
MEDICINE HAT   PTSUNNY   45  27  49 W17G23    30.19F
$$

REGIONAL REPORTS...SASKATCHEWAN

CITY           SKY/WX    TMP DP  RH WIND       PRES   REMARKS
SWIFT CURRENT  PTSUNNY   34  28  80 W17G25    30.05F WCI  23
REGINA         MOSUNNY   36  28  75 NW13G20   29.98F WCI  27
SASKATOON      MOSUNNY   36  28  75 W14       30.00F WCI  27
$$




USA.gov is the U.S. government's official web portal to all federal, state and local government web resources and services.